Temp
4 4 3 2 3 3 2 2 2 0 -0 -0 -1 -1 -2 -3 -3 -2 -2 -2 -2 -2 -2 -2 -2 -2 -2 -3 -3 -3 -3 -4 -4 -4 -5 -5 -6 -6 -7 -7 -7 -7 -6 -6
4 3 2 2 2 3 3 2 1 -1 -1 -1 -1 -2 -3 -3 -3 -2 -2 -3 -2 -2 -2 -2 -2 -2 -2 -3 -3 -3 -4 -4 -4 -5 -5 -6 -7 -8 -8 -8 -8 -8 -7 -7
3 2 2 2 2 2 1 2 1 1 -1 -1 -2 -2 -2 -3 -2 -2 -2 -3 -2 -2 -2 -2 -2 -2 -3 -3 -3 -4 -4 -5 -5 -6 -6 -7 -8 -9 -9 -9 -9 -8 -8 -8
2 2 1 1 1 1 1 0 0 -1 -1 -1 -2 -1 -2 -2 -2 -2 -2 -2 -2 -2 -2 -2 -2 -3 -2 -3 -3 -4 -5 -5 -6 -6 -7 -8 -9 -9 -9 -9 -9 -9 -9 -8
2 1 1 1 1 1 1 -0 -1 -1 -1 -1 -2 -2 -1 -2 -2 -1 -2 -2 -2 -2 -2 -2 -2 -3 -3 -3 -4 -5 -5 -6 -6 -7 -8 -9 -9 -10 -10 -9 -9 -9 -9 -9
2 1 1 1 1 1 0 -1 -1 -1 -1 -2 -1 -1 -1 -1 -0 -1 -2 -2 -2 -2 -2 -2 -3 -3 -3 -3 -4 -5 -6 -6 -6 -7 -8 -9 -9 -10 -9 -10 -10 -10 -10 -9
0 0 0 -0 -0 -0 -0 -1 -1 -5 -6 -5 -1 -1 -0 -1 -1 -2 -2 -2 -2 -2 -2 -3 -2 -3 -3 -4 -4 -5 -6 -6 -7 -7 -8 -9 -10 -10 -10 -10 -10 -10 -10 -9
-0 -2 -0 -1 -1 -1 -1 -1 -1 -9 -8 -2 -1 -2 -0 -1 -1 -1 -2 -2 -2 -2 -2 -2 -2 -3 -4 -4 -5 -6 -7 -6 -7 -7 -8 -9 -10 -10 -10 -10 -10 -11 -10 -10
0 -1 -1 -1 -1 -1 -1 -1 -1 -1 -3 -4 -2 -2 -1 -0 -1 -1 -2 -2 -2 -2 -2 -2 -3 -4 -4 -5 -5 -6 -6 -6 -7 -7 -8 -9 -10 -10 -10 -10 -11 -11 -11 -11
2 1 -1 -1 -1 -1 -1 -1 -1 -2 -9 -11 -3 -2 0 1 -0 -1 -2 -2 -2 -2 -2 -3 -4 -4 -4 -5 -6 -6 -6 -6 -7 -7 -8 -9 -10 -10 -10 -11 -11 -11 -11 -11
1 1 -2 -2 -2 -1 -1 -1 -1 -1 -2 -9 -14 -2 1 1 -0 -1 -2 -2 -2 -2 -2 -3 -4 -4 -6 -6 -6 -6 -6 -6 -7 -7 -8 -9 -10 -10 -10 -11 -11 -11 -11 -12
1 1 -2 -2 -2 -2 -2 -1 -1 -1 -2 -3 -4 1 2 1 -0 -1 -2 -2 -2 -1 -3 -4 -4 -5 -6 -6 -6 -6 -6 -6 -7 -7 -8 -9 -10 -10 -11 -11 -11 -12 -12 -12
1 -0 -2 -3 -2 -2 -1 -1 -1 -1 -2 -1 -2 2 1 0 -0 -1 -1 -1 -2 -2 -3 -4 -5 -6 -6 -6 -6 -6 -6 -6 -7 -8 -8 -9 -10 -10 -11 -11 -11 -11 -12 -12
0 0 2 2 1 2 0 1 -0 -1 -1 -0 1 2 2 0 -0 -0 -1 -1 -2 -3 -4 -4 -5 -6 -6 -6 -6 -6 -6 -6 -7 -8 -8 -9 -10 -10 -11 -11 -11 -11 -12 -12
-0 0 1 1 1 1 1 1 1 1 1 0 2 2 1 -0 0 -0 -1 -2 -2 -3 -4 -4 -6 -6 -6 -6 -6 -6 -6 -6 -7 -7 -8 -9 -10 -11 -11 -12 -12 -12 -12 -12
-0 0 0 -0 -0 -0 -1 -0 -0 -0 -0 0 1 3 1 1 0 -0 -1 -2 -2 -3 -3 -5 -6 -6 -6 -5 -5 -6 -6 -6 -7 -7 -8 -9 -10 -10 -11 -12 -12 -12 -12 -12
0 -0 -1 -1 -1 -2 -1 2 2 2 3 2 2 2 1 1 0 -0 -1 -2 -2 -3 -4 -5 -6 -6 -5 -5 -5 -6 -6 -6 -7 -7 -8 -9 -9 -10 -11 -12 -12 -12 -12 -13
1 -1 -1 -1 -2 -7 2 3 4 4 2 2 3 3 1 -0 0 0 -1 -2 -2 -3 -5 -5 -6 -5 -5 -5 -5 -6 -6 -6 -7 -7 -8 -8 -9 -10 -11 -12 -12 -13 -12 -13
-2 -1 -1 -1 -2 1 3 4 4 3 4 4 4 3 2 1 1 0 -1 -2 -2 -4 -5 -5 -5 -5 -5 -5 -6 -6 -6 -7 -7 -8 -7 -8 -9 -10 -11 -12 -12 -13 -13 -13
-3 -3 -1 -2 -1 -4 3 3 3 2 3 4 4 3 3 2 2 -0 -1 -2 -3 -4 -4 -4 -4 -5 -5 -5 -6 -6 -6 -7 -7 -7 -8 -8 -9 -10 -11 -11 -12 -13 -13 -13
-3 -4 -3 -3 -2 1 3 3 2 1 4 4 4 3 3 2 1 0 -1 -2 -3 -3 -4 -4 -4 -5 -5 -5 -6 -6 -7 -7 -7 -7 -8 -8 -8 -9 -10 -11 -12 -13 -13 -14
-1 -3 -3 -4 -4 -0 4 3 3 3 3 4 3 3 2 2 1 0 -1 -2 -3 -3 -3 -4 -4 -4 -5 -6 -6 -6 -7 -7 -7 -7 -8 -8 -8 -9 -10 -11 -12 -13 -13 -13
-1 1 1 1 3 4 4 3 3 3 3 3 3 2 2 2 1 0 -1 -2 -3 -3 -3 -3 -4 -4 -5 -6 -6 -6 -7 -7 -7 -8 -8 -8 -8 -9 -9 -10 -11 -12 -13 -13
1 2 1 2 3 3 3 3 3 3 3 2 2 2 2 1 1 -0 -1 -2 -2 -3 -3 -4 -4 -5 -5 -6 -6 -6 -7 -7 -7 -8 -8 -8 -9 -9 -9 -10 -11 -11 -12 -13
2 2 3 3 3 3 3 4 3 3 3 3 2 2 1 1 0 -0 -1 -2 -2 -2 -3 -4 -4 -5 -5 -6 -6 -6 -7 -7 -8 -8 -8 -8 -9 -9 -10 -10 -11 -11 -12 -12
3 4 4 4 3 3 3 3 2 3 3 2 2 2 1 1 0 -0 -1 -2 -2 -2 -3 -4 -4 -5 -6 -6 -6 -7 -7 -7 -8 -8 -8 -9 -9 -9 -10 -10 -11 -12 -12 -13
Height
3167 3167 3166 3168 3169 3171 3171 3173 3177 3179 3180 3181 3183 3183 3182 3181 3179 3178 3177 3175 3173 3170 3167 3162 3158 3154 3149 3144 3139 3132 3125 3118 3109 3101 3093 3086 3078 3071 3064 3056 3049 3043 3039 3034
3168 3167 3167 3168 3170 3171 3170 3173 3177 3179 3180 3182 3182 3182 3181 3179 3178 3177 3176 3175 3172 3169 3166 3162 3158 3153 3148 3143 3136 3129 3122 3115 3107 3098 3090 3081 3073 3066 3059 3051 3044 3037 3032 3027
3167 3168 3168 3168 3170 3170 3172 3175 3176 3178 3179 3181 3181 3181 3179 3178 3177 3176 3174 3173 3171 3168 3165 3161 3157 3152 3147 3141 3134 3127 3120 3112 3105 3096 3087 3079 3071 3063 3055 3047 3039 3032 3026 3021
3168 3168 3168 3169 3171 3172 3173 3176 3177 3177 3180 3180 3181 3180 3177 3176 3175 3175 3173 3172 3170 3168 3164 3159 3156 3151 3146 3138 3132 3126 3118 3111 3102 3093 3083 3073 3064 3057 3049 3041 3034 3027 3021 3017
3167 3166 3168 3170 3171 3173 3175 3177 3179 3180 3180 3180 3180 3181 3174 3174 3173 3173 3172 3172 3170 3167 3161 3157 3153 3149 3142 3136 3131 3123 3116 3109 3100 3090 3080 3070 3063 3055 3047 3039 3032 3025 3018 3013
3164 3165 3166 3168 3171 3172 3175 3177 3179 3180 3180 3179 3177 3179 3171 3169 3170 3171 3170 3171 3168 3163 3159 3155 3152 3147 3141 3135 3129 3121 3115 3106 3097 3087 3077 3069 3061 3053 3046 3037 3029 3022 3015 3010
3162 3164 3165 3166 3169 3171 3173 3176 3178 3182 3181 3179 3176 3176 3168 3167 3168 3168 3169 3168 3165 3160 3156 3153 3150 3144 3139 3133 3127 3120 3113 3104 3095 3085 3076 3068 3059 3051 3043 3035 3027 3021 3014 3008
3160 3164 3164 3165 3167 3169 3172 3174 3175 3186 3183 3176 3175 3172 3166 3165 3165 3166 3166 3165 3162 3157 3153 3150 3147 3141 3137 3131 3125 3118 3110 3102 3093 3084 3076 3067 3059 3051 3043 3035 3027 3020 3013 3006
3155 3159 3162 3164 3166 3169 3171 3173 3174 3176 3178 3178 3171 3166 3164 3162 3163 3163 3162 3161 3159 3156 3151 3148 3144 3140 3135 3130 3123 3116 3108 3100 3092 3084 3075 3067 3059 3051 3042 3034 3026 3020 3013 3006
3152 3156 3161 3163 3165 3167 3168 3171 3173 3175 3181 3184 3166 3163 3159 3157 3159 3160 3159 3158 3156 3153 3149 3146 3142 3138 3134 3127 3121 3114 3107 3100 3092 3083 3074 3066 3058 3050 3042 3034 3026 3019 3013 3006
3151 3154 3160 3162 3161 3163 3166 3166 3169 3172 3172 3171 3175 3158 3156 3156 3157 3158 3158 3155 3153 3150 3148 3145 3141 3136 3131 3125 3119 3113 3107 3100 3092 3083 3074 3065 3057 3050 3042 3034 3026 3019 3012 3006
3150 3152 3155 3158 3158 3160 3162 3163 3166 3168 3168 3166 3166 3156 3154 3155 3154 3155 3155 3152 3150 3147 3146 3143 3139 3134 3129 3124 3118 3113 3106 3098 3091 3082 3073 3065 3057 3049 3042 3034 3026 3019 3013 3007
3148 3150 3152 3156 3159 3156 3156 3157 3160 3163 3164 3162 3162 3154 3153 3153 3152 3152 3152 3149 3147 3144 3143 3140 3136 3132 3128 3123 3118 3112 3106 3098 3090 3082 3073 3065 3057 3049 3041 3034 3026 3019 3013 3008
3144 3145 3145 3148 3147 3148 3149 3151 3155 3158 3158 3155 3152 3152 3151 3151 3150 3149 3148 3146 3143 3141 3140 3138 3134 3130 3126 3121 3117 3111 3104 3097 3089 3081 3072 3064 3056 3048 3041 3034 3027 3020 3013 3008
3141 3142 3143 3145 3147 3147 3148 3149 3149 3149 3151 3151 3149 3148 3149 3148 3147 3146 3145 3143 3142 3140 3138 3135 3132 3129 3124 3120 3116 3109 3103 3096 3088 3080 3072 3064 3056 3048 3041 3034 3027 3020 3014 3008
3137 3140 3141 3143 3145 3146 3147 3147 3146 3146 3146 3145 3145 3144 3144 3145 3144 3143 3141 3140 3140 3137 3135 3133 3131 3127 3123 3119 3114 3108 3101 3095 3088 3080 3071 3064 3055 3048 3041 3033 3026 3020 3015 3009
3135 3138 3140 3142 3144 3145 3143 3137 3138 3139 3140 3142 3141 3143 3142 3142 3141 3139 3139 3139 3137 3135 3132 3131 3129 3124 3122 3118 3112 3106 3100 3094 3087 3080 3072 3064 3055 3048 3040 3033 3027 3021 3015 3010
3132 3136 3140 3140 3142 3145 3132 3131 3133 3134 3135 3136 3137 3139 3139 3139 3137 3137 3137 3136 3135 3132 3131 3129 3126 3123 3120 3115 3110 3104 3098 3093 3087 3080 3072 3064 3055 3047 3039 3033 3027 3021 3015 3010
3131 3134 3136 3136 3135 3131 3128 3128 3130 3131 3133 3132 3133 3134 3135 3134 3134 3135 3134 3134 3132 3130 3129 3126 3124 3121 3117 3113 3108 3103 3097 3092 3086 3080 3072 3063 3055 3046 3039 3033 3027 3021 3016 3010
3128 3130 3132 3132 3132 3127 3123 3124 3127 3129 3127 3128 3130 3131 3131 3131 3132 3132 3132 3131 3129 3128 3126 3124 3122 3119 3115 3110 3105 3101 3096 3092 3086 3079 3072 3063 3055 3047 3039 3033 3027 3021 3016 3011
3122 3125 3126 3129 3127 3119 3120 3123 3126 3129 3130 3126 3127 3128 3128 3129 3130 3128 3128 3127 3126 3125 3124 3122 3120 3116 3112 3108 3103 3099 3095 3090 3085 3078 3071 3064 3056 3048 3040 3033 3028 3022 3017 3012
3114 3119 3120 3126 3125 3117 3115 3118 3121 3123 3123 3124 3125 3125 3125 3126 3125 3125 3126 3124 3123 3122 3121 3120 3117 3113 3110 3106 3102 3097 3093 3088 3083 3077 3071 3064 3057 3049 3041 3035 3028 3024 3019 3014
3112 3110 3110 3113 3110 3111 3112 3114 3116 3119 3120 3121 3123 3123 3122 3123 3123 3123 3123 3122 3120 3120 3119 3117 3114 3111 3108 3104 3100 3096 3092 3087 3082 3077 3071 3064 3057 3050 3043 3037 3030 3025 3020 3015
3104 3104 3105 3106 3107 3109 3110 3111 3113 3116 3117 3118 3120 3120 3120 3120 3120 3120 3120 3119 3118 3118 3117 3114 3111 3108 3105 3102 3098 3095 3091 3086 3081 3076 3071 3064 3057 3051 3044 3038 3032 3027 3021 3016
3099 3100 3101 3100 3102 3104 3105 3107 3110 3112 3113 3115 3116 3116 3117 3118 3118 3118 3117 3116 3116 3115 3113 3111 3108 3106 3103 3100 3097 3093 3089 3085 3081 3076 3070 3064 3058 3051 3044 3038 3032 3026 3021 3016
3092 3094 3095 3096 3099 3099 3102 3103 3106 3107 3110 3111 3112 3113 3114 3115 3115 3114 3114 3113 3112 3110 3109 3107 3105 3104 3101 3098 3095 3091 3088 3084 3080 3076 3071 3065 3059 3052 3046 3039 3034 3028 3022 3017
Wind_Speed
14 12 14 11 7 3 8 11 11 10 9 11 5 7 9 7 9 15 19 25 28 27 26 26 27 27 28 29 29 33 37 40 43 46 48 46 44 40 39 38 37 34 34 33
13 12 13 13 11 6 10 14 12 9 7 3 4 3 3 4 7 13 17 21 27 26 25 25 25 26 28 28 32 37 40 43 46 48 49 48 46 42 39 38 36 34 32 32
13 11 8 5 8 11 15 10 12 5 9 5 2 4 2 6 8 11 15 18 27 26 23 24 24 25 26 29 34 38 42 45 47 49 49 48 44 40 39 37 36 33 31 30
7 13 9 9 10 9 10 7 10 14 11 3 5 3 9 11 11 12 14 17 26 24 22 22 21 22 25 30 34 38 43 46 47 48 48 48 46 44 43 40 37 34 30 26
8 14 13 12 10 12 8 10 10 9 5 4 7 6 6 14 15 12 14 17 23 21 20 20 21 22 27 31 35 39 43 45 47 47 47 46 44 42 40 37 34 31 28 24
9 13 11 14 14 11 14 16 11 5 4 3 8 8 9 16 10 12 13 17 22 20 20 19 20 22 27 31 36 40 42 44 46 47 46 45 42 40 38 36 34 32 30 26
13 10 10 12 17 13 18 19 3 2 1 6 5 8 13 7 10 12 17 18 21 20 19 19 20 23 27 33 37 40 41 43 45 46 45 43 41 40 39 37 35 34 31 27
14 8 12 17 18 12 20 16 2 6 3 3 5 7 4 8 11 14 15 17 20 20 20 21 21 25 29 33 36 39 40 43 45 45 43 41 39 39 37 35 34 33 32 29
16 9 17 19 19 15 18 12 7 1 1 3 7 10 15 15 12 11 12 17 19 20 19 19 21 25 29 33 36 38 40 43 43 43 42 39 38 38 37 35 35 34 32 31
10 7 19 18 20 18 12 11 6 6 2 4 5 9 15 7 6 9 11 16 19 19 18 18 22 26 30 34 36 37 39 41 41 42 41 39 38 37 36 35 34 33 32 32
10 7 14 18 20 21 20 14 9 7 5 5 1 6 4 3 5 8 11 15 17 18 16 17 22 27 33 35 35 36 38 39 40 41 40 39 37 37 36 35 34 33 33 32
16 9 10 17 14 19 21 18 18 7 6 7 4 6 3 5 6 8 12 15 18 17 12 17 23 28 34 35 34 34 36 38 39 39 40 38 37 36 36 36 34 32 31 31
21 10 10 5 13 19 24 24 24 23 12 11 4 4 5 7 9 11 14 16 17 15 13 18 24 29 34 34 32 33 35 36 38 38 39 38 37 36 35 35 33 32 30 30
18 18 11 11 3 11 24 25 26 24 12 11 16 13 12 11 12 15 13 14 14 12 14 18 24 28 33 33 31 32 34 35 37 37 39 38 37 36 35 34 33 32 31 30
21 17 21 14 8 7 8 12 22 27 25 14 13 14 12 14 14 13 13 11 9 10 14 19 24 28 32 31 29 31 32 35 36 37 39 39 38 36 34 32 32 32 30 29
24 11 17 18 13 11 13 13 15 16 21 24 22 16 14 13 12 10 9 8 8 12 16 20 24 28 29 28 28 29 31 33 35 37 38 39 38 37 34 31 31 31 30 28
25 22 14 11 16 13 18 21 23 22 22 15 17 4 12 11 11 9 8 7 10 13 17 20 23 27 26 26 26 28 30 32 33 36 37 39 39 37 35 31 30 29 29 28
22 22 12 7 11 2 9 8 9 9 10 15 14 11 13 11 11 7 8 8 11 14 16 19 23 23 23 24 25 27 29 31 32 35 37 39 40 38 36 32 29 28 29 28
21 19 11 7 17 13 8 10 11 11 10 9 7 12 12 13 10 6 6 8 11 14 16 19 19 20 21 22 24 26 28 30 31 33 37 39 40 40 37 33 29 28 28 28
22 21 20 14 5 7 3 10 14 12 16 9 8 9 8 7 6 5 5 7 12 15 16 16 18 18 19 21 23 25 27 29 30 32 35 39 40 40 37 35 31 27 27 27
25 25 25 19 10 9 13 9 13 10 3 6 6 6 4 2 3 4 6 8 12 14 14 15 16 17 19 21 23 25 26 28 30 32 34 37 39 39 38 35 31 27 25 24
27 23 22 21 11 14 14 19 21 10 6 6 5 5 3 3 3 4 5 8 11 12 13 14 15 17 18 20 22 24 25 27 29 31 33 36 38 38 37 35 33 28 24 23
18 28 16 18 8 11 10 14 11 14 10 7 6 6 3 4 4 4 5 8 9 10 12 13 15 17 18 20 21 23 24 26 28 30 32 34 36 37 36 34 33 30 26 22
25 18 20 20 19 21 15 13 13 12 12 9 8 5 4 5 4 4 6 7 8 10 11 13 15 16 18 19 20 22 23 25 27 28 30 33 35 36 36 35 34 32 29 26
24 21 24 26 23 18 20 22 16 14 14 10 9 6 6 5 5 5 6 6 9 11 12 14 15 17 18 19 19 20 22 24 26 27 29 32 34 35 36 35 35 35 33 31
26 24 24 19 14 15 17 12 16 17 15 12 11 8 6 6 6 7 7 8 9 11 13 15 16 17 18 18 19 19 21 22 24 25 27 29 31 33 33 34 34 34 32 31
Wind_Direction
159 169 165 192 224 237 231 196 172 160 123 155 100 61 59 44 11 8 7 8 1 355 352 352 353 353 355 353 348 353 354 353 351 350 347 344 339 333 325 321 315 310 302 300
174 183 185 200 221 225 202 189 162 141 133 120 148 75 57 21 340 349 355 355 352 349 347 348 352 352 352 347 354 357 355 353 351 349 346 342 339 335 330 324 319 314 303 301
182 181 197 205 156 158 161 192 185 210 155 193 188 238 226 275 301 321 338 339 343 341 343 348 349 350 349 352 356 356 355 353 350 347 344 341 340 338 335 331 327 323 314 309
198 183 189 181 183 176 151 161 159 154 163 205 218 298 237 252 280 296 323 329 332 334 340 345 344 348 346 355 355 356 355 351 348 345 343 343 342 342 339 337 333 328 322 314
189 190 192 194 199 178 176 138 147 165 183 168 208 251 249 237 261 291 312 315 324 330 338 341 342 344 352 353 355 356 353 349 346 345 345 344 343 342 341 338 336 334 330 322
222 202 204 208 206 195 182 166 159 157 197 255 219 223 256 237 270 279 295 302 322 333 335 336 335 345 352 351 355 355 351 347 346 347 347 345 345 344 344 343 342 342 341 333
186 200 210 190 184 182 178 171 132 353 330 225 209 239 258 267 266 275 275 292 323 332 330 329 331 345 351 352 353 352 349 347 348 349 349 347 346 347 347 347 345 344 345 342
187 171 180 176 180 181 178 180 166 194 204 272 208 240 250 238 247 255 269 299 324 328 324 324 337 348 352 350 350 349 348 349 350 350 350 348 348 349 348 349 348 349 351 350
180 174 180 178 186 181 184 209 225 192 219 302 226 252 264 257 249 260 278 305 321 320 320 326 343 351 351 349 346 348 348 350 350 350 350 349 350 350 350 351 351 351 353 354
192 155 187 193 189 194 202 210 186 199 135 270 266 261 247 243 264 269 286 306 318 318 324 339 348 354 352 347 346 348 348 349 351 351 349 352 351 351 352 352 351 353 355 357
197 190 186 198 203 209 208 210 209 209 214 171 235 252 251 246 264 279 295 311 314 318 333 343 353 357 353 345 345 347 346 348 351 351 350 353 351 352 353 353 353 356 356 357
200 196 170 197 210 214 221 234 227 227 217 216 237 273 253 275 300 299 306 311 314 325 336 347 359 358 350 343 344 344 347 348 352 351 350 354 351 351 353 354 355 356 357 358
213 204 152 191 225 220 221 224 225 228 242 235 197 269 281 300 312 311 314 312 313 326 341 354 358 351 346 341 341 342 346 349 352 352 352 354 352 351 353 354 355 357 359 360
214 218 208 196 201 213 221 230 223 221 225 236 243 275 285 294 306 311 311 313 314 333 345 353 353 345 340 338 339 342 345 350 352 352 352 354 351 353 353 353 355 357 360 0
207 227 222 233 235 212 224 231 224 228 235 245 269 274 280 291 297 303 308 317 327 342 346 355 348 340 336 335 337 341 346 350 353 351 353 354 353 353 352 353 355 358 359 360
211 226 218 226 230 238 253 243 239 239 243 249 264 280 252 267 289 306 319 327 335 345 348 350 340 333 333 331 336 340 347 350 354 352 353 354 354 354 354 354 356 357 358 0
209 216 206 219 232 248 271 255 245 247 255 260 253 246 263 278 294 318 331 329 338 343 349 341 331 329 328 331 336 342 347 351 353 352 353 355 354 355 356 357 357 356 359 2
218 212 202 200 175 236 233 239 245 248 222 243 252 241 244 260 284 311 330 334 335 344 343 330 326 326 328 332 338 343 347 352 352 353 353 356 355 357 358 358 357 357 359 2
210 213 198 204 211 271 242 244 242 262 250 235 230 224 228 240 271 304 323 324 335 338 330 324 325 327 329 335 339 343 347 352 351 352 355 356 356 357 358 0 0 359 0 1
209 211 213 206 229 223 238 240 232 243 268 233 215 224 224 234 256 281 300 335 333 324 321 323 328 328 332 337 340 344 348 351 351 353 358 357 358 358 358 1 3 1 0 2
194 207 217 223 237 258 239 224 209 213 258 192 216 225 227 218 243 284 321 331 316 311 318 326 328 332 337 338 341 346 348 349 352 355 358 358 359 359 360 1 4 5 1 2
205 195 210 221 232 256 239 218 216 226 212 222 234 234 224 253 266 301 327 308 297 308 321 327 332 339 339 339 342 345 347 349 352 355 357 359 360 1 2 2 5 7 4 1
218 218 223 217 243 240 240 227 215 218 217 232 239 242 250 268 281 319 301 287 296 316 323 331 338 340 339 340 342 345 347 349 353 355 357 358 0 2 4 4 7 6 8 5
229 232 232 246 252 244 237 210 199 203 218 229 237 243 265 277 295 285 286 293 302 317 329 335 339 340 341 339 341 343 347 350 352 355 357 358 360 1 3 5 7 7 9 12
247 247 251 259 254 249 236 226 219 218 234 229 237 241 257 268 272 280 289 293 306 325 335 334 338 339 337 337 339 342 347 350 351 354 356 358 360 0 2 4 5 5 7 8
247 252 253 276 296 260 243 226 219 220 230 229 226 233 252 265 276 281 291 299 319 336 334 333 334 332 333 335 336 342 347 348 350 353 356 358 359 0 2 4 3 4 5 6